Home > Weather > Andernach > Past weeks

Flag for Germany Weather for the Past 2 Weeks in Andernach, Rhineland-Palatinate, Germany

Now
41 °F

Quite cool.


Feels Like: 33 °F
Forecast: 44 / 51 °F
Wind: 14 mph from Southwest

Location: Buechel

Current Time: Feb 6, 2016 at 11:23:01 AM

Latest Report: Feb 6, 2016 at 10:20 AM


Visibility: N/A

Pressure: 29.95 "Hg

Humidity: 93%

Dew point: 39 °F

Location of AndernachLocation

Historic Weather in Andernach — Graph

°F

Andernach Temperature Yesterday

Maximum temperature yesterday: 45 °F (at 2:20 PM)
Minimum temperature yesterday: 36 °F (at 4:20 AM)
Average temperature yesterday: 41 °F

High & Low Weather Summary for the Past Weeks

 TemperatureHumidityPressure
High52 °F (Jan 25, 2:20 PM)100% (Jan 22, 10:20 AM)30.54 "Hg (Jan 22, 10:20 AM)
Low21 °F (Jan 22, 9:20 AM)58% (Jan 25, 2:20 PM)29.74 "Hg (Jan 30, 3:20 PM)
Average40 °F91%30.16 "Hg
* Reported Jan 22 9:20 AM — Feb 6 9:20 AM, Andernach, Weather by CustomWeather, © 2016

Note: Actual official high and low records may vary slightly from our data, if they occured in-between our weather recording intervals... More about our weather records

Advertising

Andernach Weather History for the Previous 24 Hours

 ConditionsComfort  
Time TempWeatherWind HumidityBarometerVisibility
9:20 AM
Sat, Feb 6
41 °FQuite cool.12 mph93%29.95 "HgN/A
8:20 AM39 °FChilly.10 mph100%29.95 "Hg4 mi
7:20 AM37 °FChilly.9 mph100%29.98 "Hg4 mi
6:20 AM37 °FChilly.6 mph100%29.98 "HgN/A
5:20 AM39 °FChilly.10 mph100%29.98 "HgN/A
4:20 AM39 °FChilly.7 mph93%30.01 "Hg6 mi
3:20 AM41 °FQuite cool.9 mph93%30.04 "HgN/A
2:20 AM43 °FQuite cool.12 mph93%30.07 "HgN/A
1:20 AM43 °FQuite cool.8 mph93%30.09 "HgN/A
12:20 AM43 °FQuite cool.12 mph93%30.09 "HgN/A
11:20 PM
Fri, Feb 5
43 °FQuite cool.12 mph93%30.12 "HgN/A
10:20 PM43 °FQuite cool.13 mph100%30.12 "HgN/A
9:20 PM43 °FQuite cool.13 mph100%30.15 "Hg5 mi
8:20 PM43 °FQuite cool.13 mph100%30.15 "Hg4 mi
7:20 PM43 °FQuite cool.12 mph100%30.18 "Hg5 mi
6:20 PM45 °FQuite cool.12 mph93%30.18 "HgN/A
5:20 PM45 °FQuite cool.10 mph93%30.18 "HgN/A
4:20 PM45 °FQuite cool.9 mph93%30.18 "HgN/A
3:20 PM45 °FQuite cool.10 mph100%30.21 "HgN/A
2:20 PM45 °FQuite cool.14 mph100%30.21 "Hg6 mi
1:20 PM43 °FQuite cool.12 mph100%30.24 "Hg3 mi
12:20 PM43 °FQuite cool.12 mph100%30.24 "Hg0 mi
11:20 AM41 °FQuite cool.10 mph100%30.27 "Hg0 mi
Weather by CustomWeather, © 2016

See weather overviewHow to use our weather pages